Theta_e
325 317 311 318 309 310 308 302 294 292 286 287 283 287 289 292 292 292 293 294 295 296 294 300 297 301 299 299 303 300 302 305 301 292 289 298 320 335 330 332 337 339 339 340 341 343 343 345 348 348 348 348 347 347 347 346 345 344 341 341 341 342 342 341 340 339 339 337 339 342 342 342 345 345 342 340 338 337 336 339 340 341 341 341 341 341 344 344 342 341 340 340 339 338 338 337 337
318 312 314 312 311 309 305 296 288 283 284 284 285 285 287 289 293 292 293 291 293 300 300 307 308 309 308 308 308 308 304 315 302 312 317 327 335 334 333 335 339 340 341 342 344 344 341 343 347 348 348 348 347 347 347 346 344 343 342 342 341 340 339 339 340 339 340 340 340 343 345 345 346 344 342 340 337 336 336 339 340 340 340 340 341 342 341 341 340 341 340 341 340 338 337 337 337
316 314 314 311 310 303 299 298 294 280 285 283 282 285 288 290 290 291 292 290 296 304 304 305 301 300 304 304 301 299 300 320 316 320 326 333 330 332 335 336 339 341 342 343 344 344 340 341 345 348 348 348 347 347 346 345 345 344 343 343 343 342 341 341 340 340 340 339 339 341 345 344 344 342 340 339 337 337 337 337 339 339 340 339 340 340 340 341 340 341 341 342 341 339 340 339 339
314 315 312 309 308 299 295 288 286 285 285 281 280 286 287 290 290 291 290 291 303 299 298 298 302 301 304 302 304 312 314 317 320 324 325 329 328 336 337 338 340 342 341 343 344 343 341 342 345 348 348 347 347 347 346 345 344 344 343 342 342 342 341 341 340 339 340 343 342 342 344 345 342 341 341 339 337 337 337 338 338 338 339 340 340 340 340 340 341 342 341 341 341 340 340 339 339
315 317 308 305 302 302 291 288 283 282 284 281 283 285 288 288 292 289 296 293 297 295 296 297 303 306 306 307 305 302 302 315 321 323 325 329 332 338 338 339 341 342 341 343 344 343 339 342 345 347 348 348 347 347 346 346 346 345 343 343 342 341 341 341 340 340 340 340 341 343 344 344 345 343 340 337 337 337 337 337 338 340 340 341 340 340 341 342 342 342 341 342 342 340 339 339 339
309 310 310 308 303 301 294 289 287 286 287 285 285 289 288 291 293 292 296 295 294 293 295 298 302 303 306 309 308 307 312 315 319 316 325 328 337 339 339 340 341 341 342 343 344 342 339 341 343 347 348 348 348 347 346 345 345 344 343 343 342 342 342 341 341 342 341 340 343 342 344 344 344 344 341 339 339 338 337 337 339 339 339 339 339 340 343 343 343 342 341 341 341 341 340 339 340
312 303 302 304 300 298 293 286 284 282 286 287 289 288 291 291 293 293 294 296 296 296 293 300 302 303 303 304 310 313 315 317 321 322 323 330 339 339 339 340 340 340 342 343 343 343 341 342 346 348 348 348 347 346 345 345 345 344 343 343 342 342 342 341 341 341 340 338 344 344 343 343 344 343 341 340 338 338 337 336 338 338 338 337 338 339 340 341 341 342 341 341 341 340 340 339 339
311 307 302 296 293 290 285 283 283 283 290 287 290 291 291 293 290 292 293 294 295 297 299 299 295 297 298 306 304 313 314 316 320 320 329 337 338 338 339 339 338 339 341 342 343 344 345 341 345 347 348 348 347 346 346 346 345 344 343 343 343 342 342 342 341 340 339 339 342 342 343 343 343 342 340 339 338 338 337 337 337 338 337 337 337 338 339 339 340 341 341 340 340 339 339 339 339
305 304 300 298 291 286 282 287 286 285 286 289 290 291 300 292 291 292 292 292 293 294 299 301 296 297 296 306 304 310 314 319 322 325 335 338 337 338 338 338 337 338 340 341 343 344 344 339 343 346 346 347 347 346 346 345 345 344 343 343 343 342 342 342 341 341 341 340 340 340 341 342 342 342 340 338 338 338 337 337 336 336 337 337 337 338 338 338 339 339 339 339 339 338 338 338 338
302 302 295 293 287 290 282 285 287 290 290 291 292 295 293 291 291 292 292 293 295 294 297 294 294 295 297 303 305 314 317 317 326 331 336 338 338 337 337 337 338 338 339 340 342 344 344 344 340 343 344 347 347 347 347 346 345 344 343 343 343 343 342 342 342 341 341 340 339 339 341 341 341 341 341 339 338 337 336 336 336 336 336 336 336 337 338 337 337 338 338 338 339 338 337 337 337
297 297 296 293 282 283 285 285 283 285 292 288 291 290 292 291 291 290 291 294 292 295 295 296 299 300 302 302 304 310 313 318 327 329 335 337 337 335 336 338 339 339 338 340 342 343 344 344 342 340 342 343 345 347 346 346 345 345 343 343 343 343 342 341 341 341 341 340 339 339 339 340 340 340 340 339 337 337 336 336 335 335 336 336 336 336 336 337 337 339 339 338 337 336 336 336 336
297 295 293 284 285 285 282 284 285 285 287 289 295 293 292 292 291 292 292 295 294 293 295 296 299 301 300 298 302 308 311 321 322 331 335 336 335 334 335 338 339 339 339 340 342 343 344 343 341 341 338 340 341 344 344 344 345 344 343 342 342 342 342 341 341 341 340 340 339 339 338 337 337 337 337 337 336 336 335 335 335 336 336 336 336 335 336 337 337 337 337 336 335 335 336 335 335
294 293 290 288 287 286 285 285 289 292 285 287 292 294 291 292 293 291 290 292 291 293 295 295 300 299 296 299 302 306 317 321 322 328 332 333 332 333 335 337 339 339 340 340 341 342 343 343 341 340 337 335 336 338 339 341 342 343 343 342 342 342 341 341 340 340 340 339 339 339 338 338 338 336 335 335 336 334 334 335 334 336 336 335 335 335 335 336 336 336 336 335 335 335 335 335 334
296 294 292 292 284 283 283 285 284 289 287 289 288 291 292 293 291 290 292 294 292 293 295 294 302 298 298 297 298 304 314 319 320 326 329 330 332 335 337 338 338 338 340 341 340 342 343 343 342 341 338 337 337 335 334 336 339 342 342 341 340 341 341 341 341 340 340 340 338 337 336 336 336 336 336 336 335 335 334 335 334 335 335 334 334 334 334 335 335 335 334 334 334 334 334 334 333
301 294 288 285 284 286 284 288 288 284 288 288 293 291 292 294 290 290 294 293 293 292 296 300 300 297 292 296 291 307 318 319 322 322 327 330 334 337 337 338 338 338 339 340 341 341 342 342 342 342 340 339 337 337 335 335 335 337 338 337 338 339 339 338 338 338 336 335 335 333 332 330 330 331 332 332 333 332 331 329 333 334 333 334 333 334 334 334 334 334 333 333 333 333 332 331 331
298 294 289 289 286 285 287 285 282 285 288 288 292 290 292 293 290 293 293 294 295 295 296 300 301 298 296 295 302 304 318 320 321 325 328 331 334 336 337 337 336 337 338 339 340 341 342 342 342 341 340 340 339 337 336 336 333 332 335 336 336 336 336 335 335 333 328 327 328 327 326 325 324 324 324 326 328 330 328 326 330 333 332 332 333 333 333 333 333 332 332 331 331 330 330 329 328
297 295 293 284 288 286 287 286 287 287 286 287 289 290 293 292 292 293 292 294 296 295 298 301 300 307 297 297 306 308 319 321 322 326 328 330 332 332 333 334 334 335 337 338 339 340 341 341 341 340 340 340 340 339 338 337 334 331 331 330 330 331 332 332 330 324 321 320 321 321 322 322 320 320 320 321 320 322 321 323 328 331 331 331 332 331 332 332 332 331 329 328 326 324 321 322 322
297 292 287 287 284 285 287 288 289 287 289 290 289 291 293 290 292 296 295 295 292 294 299 295 303 309 314 314 309 309 320 323 325 328 328 328 330 329 330 331 332 332 333 335 338 340 340 340 340 340 340 340 339 339 339 338 336 334 332 330 329 329 327 325 325 324 324 322 321 321 321 320 320 319 319 322 320 322 322 321 323 328 330 330 330 330 331 330 329 329 328 326 324 320 316 311 312
291 287 287 288 284 287 291 289 290 290 291 291 291 289 292 292 292 294 293 291 293 295 296 295 301 302 306 310 311 317 321 323 326 328 327 327 328 328 329 330 331 332 332 333 336 338 339 339 339 339 339 339 338 337 338 338 337 337 334 330 328 327 326 325 324 323 321 321 320 319 318 319 319 319 318 319 319 319 321 320 323 326 328 328 328 329 329 328 327 327 325 322 320 316 310 309 309
292 292 290 284 288 288 289 289 290 289 291 292 291 290 290 292 293 293 294 290 291 293 292 294 296 299 304 310 312 318 320 322 324 324 325 327 329 330 330 330 330 331 332 333 335 337 338 338 338 339 338 339 338 337 337 338 338 338 336 332 327 325 324 324 323 322 321 320 320 319 318 317 318 319 320 320 319 318 316 316 317 317 319 319 318 320 324 324 323 321 319 316 313 309 308 307 308
294 291 286 291 289 293 292 288 288 287 290 291 290 289 291 291 291 293 289 293 291 291 290 297 296 297 307 312 313 317 319 320 321 322 324 326 328 331 332 332 331 333 334 334 334 335 337 338 338 338 339 339 338 337 336 337 338 338 337 333 329 324 323 322 322 321 320 319 318 318 317 317 317 317 317 316 316 316 314 310 309 309 309 308 311 308 308 309 308 307 307 307 306 307 307 306 307
292 293 291 291 289 292 292 288 288 288 287 290 287 292 291 291 292 289 292 291 291 294 297 294 296 299 311 313 315 316 318 319 320 319 322 324 326 328 331 332 333 334 333 332 333 334 336 337 337 338 338 339 338 337 337 336 337 337 336 334 329 326 323 320 320 320 319 319 318 317 317 317 316 316 316 315 314 314 311 307 305 305 305 304 306 305 305 306 305 305 305 305 304 304 304 304 305
294 290 288 288 288 293 290 290 289 287 289 290 289 291 291 291 292 287 291 294 291 291 293 294 293 305 312 314 316 317 317 318 318 319 320 322 325 327 328 330 331 332 332 333 334 334 335 336 337 337 337 338 338 338 338 336 337 337 336 334 330 327 324 321 319 319 319 318 317 316 317 316 315 315 314 314 313 313 309 305 303 303 303 303 304 305 304 304 304 304 304 303 303 304 303 303 303
288 291 289 292 288 293 288 290 288 287 291 290 290 291 292 290 293 289 289 292 292 290 289 289 295 312 314 314 315 318 318 318 319 320 321 322 324 326 328 328 329 330 331 333 334 334 333 335 336 337 337 337 337 338 337 336 337 337 337 332 331 327 325 322 320 319 318 318 317 316 316 317 316 315 314 313 312 311 308 304 302 301 302 302 302 304 303 302 303 303 303 302 303 302 302 302 302
291 291 290 291 290 290 288 286 287 287 289 289 289 292 291 289 291 289 290 294 293 291 292 296 307 310 310 313 314 315 316 317 318 319 316 318 317 319 321 326 329 330 330 332 334 334 334 335 336 336 336 336 337 338 337 336 337 337 336 333 332 325 326 324 322 319 317 317 317 316 316 315 315 314 314 312 311 311 305 303 301 301 301 301 302 302 303 302 302 302 302 302 301 301 301 300 300
290 291 288 289 291 288 289 289 287 288 290 288 291 290 289 288 289 291 292 292 290 293 299 302 307 309 310 312 314 314 314 316 317 316 319 317 313 318 322 325 329 330 331 332 333 335 336 336 335 335 335 336 337 337 336 336 336 337 336 334 334 327 327 325 322 320 319 317 316 316 315 316 315 314 313 311 312 309 305 302 301 300 300 300 302 302 301 302 302 301 301 301 301 300 300 300 299
289 288 288 290 289 290 289 291 289 288 290 288 290 290 291 290 290 289 290 289 289 295 297 300 306 307 309 310 312 312 313 314 315 317 312 312 314 317 320 321 326 329 331 331 332 334 335 335 335 335 336 334 336 336 336 336 336 336 336 336 334 329 329 325 322 321 320 319 317 316 315 315 314 313 313 311 311 309 304 302 301 299 299 300 301 301 301 301 301 301 301 301 300 299 298 298 298
290 290 289 290 287 290 288 290 290 289 293 287 290 290 289 289 289 289 290 289 290 294 296 300 300 305 307 308 310 311 312 313 312 310 315 314 316 317 318 321 323 327 329 330 332 333 334 335 336 336 336 335 335 336 335 335 335 336 336 336 335 332 331 327 323 321 319 320 318 317 316 315 314 314 312 311 311 308 304 302 301 299 299 299 300 300 300 300 300 300 299 299 298 298 297 296 297
289 292 290 288 285 290 289 291 289 289 292 291 289 291 289 290 289 290 287 288 292 292 294 297 299 300 303 305 307 308 312 310 308 312 315 317 318 318 318 321 322 324 328 329 331 331 332 334 336 336 336 335 335 335 335 336 336 336 336 336 335 333 333 330 325 322 321 321 320 318 317 317 316 315 313 312 311 310 306 303 301 300 299 299 299 299 299 298 299 298 298 298 297 296 296 295 296
290 288 286 286 285 284 290 288 289 291 291 289 290 285 283 287 293 291 291 287 290 293 292 292 295 294 296 300 305 308 308 307 309 313 315 316 316 316 317 319 319 321 323 325 327 329 332 333 333 336 336 335 334 336 336 335 335 335 335 336 334 334 334 332 328 325 322 321 321 320 319 318 317 316 313 311 311 311 308 305 303 301 299 299 299 299 299 298 298 298 297 297 297 296 295 294 294
290 288 285 282 286 283 287 288 288 291 290 288 290 284 282 281 286 286 285 286 290 290 290 291 291 292 292 294 300 305 307 308 311 313 313 314 314 315 316 316 316 317 316 318 323 327 329 331 332 333 333 336 333 334 334 335 335 335 335 335 336 335 334 333 331 328 324 322 323 320 319 318 317 316 314 311 310 310 308 306 304 301 299 299 299 299 299 298 298 297 297 296 295 294 294 294 293
282 286 283 283 283 283 285 288 288 290 291 288 288 283 286 285 287 284 287 287 288 289 289 289 289 290 291 290 293 297 303 305 307 308 310 312 312 314 315 316 316 316 317 318 319 320 325 329 330 331 331 332 334 334 334 334 334 334 335 330 335 335 334 334 333 330 327 324 323 322 320 318 317 317 315 312 309 309 308 307 306 301 300 300 300 300 300 299 298 297 297 297 295 293 293 292 292
283 283 281 283 282 281 284 291 286 288 291 289 288 284 282 287 288 286 286 287 287 287 287 286 287 288 290 291 292 293 294 296 297 302 306 309 311 313 314 315 315 316 317 316 317 317 320 324 326 329 330 331 332 332 333 333 333 332 332 334 335 334 333 332 332 330 330 326 324 324 321 319 318 318 316 312 309 307 307 307 306 302 301 301 301 301 300 300 299 298 298 298 298 294 293 291 291
286 281 282 281 282 282 283 286 289 288 289 289 287 287 284 287 287 284 286 288 289 289 288 288 288 288 289 290 290 292 292 294 295 297 299 303 308 310 313 313 314 315 315 316 317 317 319 320 323 326 329 330 331 330 330 331 332 332 331 332 330 333 334 335 334 333 330 329 326 325 324 320 318 318 317 313 310 308 307 306 306 302 301 301 301 301 300 300 300 300 298 298 298 295 293 291 290
281 284 282 284 281 280 282 286 288 289 288 288 286 286 289 291 291 291 290 288 289 289 290 290 290 290 290 289 290 291 292 293 296 297 297 297 301 305 308 310 311 312 315 315 316 317 316 317 319 320 323 327 329 329 327 328 327 326 327 328 329 331 331 331 333 333 333 331 329 327 326 323 319 318 317 315 311 308 305 306 305 302 302 302 302 302 300 299 299 300 299 297 296 295 294 292 291
286 286 284 280 282 282 283 282 283 288 288 287 285 287 287 289 290 292 291 287 288 289 287 288 289 290 290 291 291 291 292 294 296 295 295 295 296 299 302 305 308 309 311 313 314 315 316 316 317 318 320 323 325 327 325 324 323 323 323 318 320 325 329 327 328 331 332 332 331 330 328 326 322 319 318 316 313 310 307 306 305 302 301 301 301 300 300 299 299 299 298 296 293 292 292 291 290
285 282 279 281 281 282 283 284 288 285 288 287 285 284 284 288 291 292 293 290 288 288 290 291 290 290 290 291 291 292 292 295 295 293 294 295 296 295 297 300 304 305 307 310 313 314 316 317 316 316 318 320 322 324 323 323 322 321 321 323 324 322 323 326 326 327 329 329 328 329 328 328 325 321 319 317 314 309 307 306 305 302 302 301 301 301 301 301 302 300 297 295 293 291 290 290 290
286 283 283 281 283 285 286 287 286 286 288 284 281 284 286 287 289 290 291 287 290 291 290 290 290 291 291 291 291 291 293 291 292 293 293 291 293 294 293 296 300 302 305 308 311 314 315 316 316 317 316 317 320 323 323 324 324 324 323 323 324 322 320 321 324 324 326 327 328 328 328 328 327 324 320 320 316 313 308 306 304 302 303 302 302 302 302 300 300 298 296 294 294 293 290 291 290
282 283 281 282 282 281 285 286 285 286 287 283 281 284 288 290 290 292 291 292 292 291 290 292 291 292 292 291 291 292 290 292 290 291 290 291 291 292 293 295 299 303 304 307 310 311 312 314 316 316 315 316 318 320 321 322 323 321 322 319 322 315 312 319 320 320 320 323 325 327 327 328 327 326 323 321 319 314 310 307 304 303 303 302 302 302 300 299 299 298 296 295 293 293 291 291 291
282 281 282 282 282 286 284 285 286 285 285 286 284 284 288 288 286 288 291 290 289 287 287 288 289 291 292 292 290 290 291 291 291 290 292 291 290 290 292 295 298 301 302 304 307 310 312 313 315 315 315 315 317 318 317 317 313 309 308 308 311 314 312 306 311 310 314 317 320 320 320 324 328 327 324 323 320 316 311 308 305 303 302 302 302 301 300 299 299 298 297 296 295 292 290 290 292
282 282 281 282 284 283 282 285 284 281 284 282 282 284 285 279 282 284 282 282 284 287 286 288 290 290 290 290 290 291 291 292 292 292 291 289 290 292 294 295 296 299 302 304 306 310 312 313 314 315 315 314 315 313 314 310 309 308 305 306 307 306 306 307 308 311 314 316 317 317 320 319 319 320 325 324 321 319 314 310 306 304 303 302 303 302 301 300 300 299 297 296 295 295 291 291 290
286 282 283 284 284 284 284 284 283 277 281 281 280 280 274 276 279 281 283 282 284 282 284 287 287 286 286 288 291 290 291 291 292 294 294 291 291 290 291 293 296 298 301 304 305 308 309 310 310 311 311 311 312 312 312 311 313 313 310 312 310 307 311 306 310 313 312 313 316 316 316 317 319 320 320 320 322 319 316 311 308 305 303 302 302 302 302 300 299 299 298 297 296 297 295 291 291
283 286 284 283 284 284 283 283 281 279 279 282 280 280 275 278 281 283 281 282 286 288 285 287 287 286 285 287 288 288 289 290 290 290 291 291 290 289 290 292 295 298 300 300 301 305 307 307 308 310 311 310 309 309 310 310 310 311 312 315 315 315 314 311 307 305 310 311 310 314 316 315 317 319 319 320 320 319 317 314 310 307 305 303 302 302 301 300 300 299 298 298 297 298 296 292 292
285 283 282 284 285 285 282 282 282 279 279 283 279 276 277 279 283 282 280 282 285 285 287 288 286 286 285 285 286 286 287 288 290 290 290 289 290 290 292 292 294 297 296 299 301 303 306 307 307 308 307 307 307 308 308 310 312 310 310 311 311 313 313 312 307 306 302 302 309 312 313 314 314 315 317 317 319 318 317 316 313 310 307 305 302 302 302 301 301 300 299 299 299 298 296 295 294
285 284 284 284 285 282 281 281 280 279 281 281 277 283 279 276 280 281 280 285 283 285 287 287 286 286 285 288 289 287 285 286 287 289 289 290 291 291 292 293 293 295 296 300 301 300 303 303 303 303 305 304 304 306 307 308 309 310 310 310 310 309 308 305 300 300 302 299 305 306 310 312 312 312 313 315 315 316 315 315 314 311 309 306 302 303 302 302 301 299 298 298 298 298 297 297 296
285 284 284 283 282 281 280 278 280 279 279 273 279 280 275 277 279 279 278 283 283 286 285 285 284 284 286 288 289 288 286 284 285 287 288 289 290 291 292 292 294 294 295 297 298 299 300 301 302 303 302 303 302 303 305 306 307 306 308 308 309 308 303 299 298 299 299 297 301 301 305 308 310 311 310 311 313 314 314 313 313 312 310 307 302 303 303 302 301 300 299 298 298 298 298 297 296
287 285 287 284 280 279 277 276 276 275 272 274 276 276 278 276 279 279 282 283 282 282 282 281 282 285 288 286 286 289 290 289 288 288 289 289 289 290 289 292 294 294 294 295 296 297 298 300 300 302 300 300 301 303 304 305 305 306 308 307 307 307 305 303 300 299 297 296 299 298 299 304 306 309 309 309 310 312 313 311 312 311 310 307 304 303 303 302 302 301 300 299 299 298 298 297 296
287 284 280 285 281 278 277 273 274 272 267 272 276 278 277 274 275 279 281 281 281 285 286 286 285 287 290 289 287 288 288 289 289 288 288 287 291 293 292 294 294 294 294 294 294 295 298 298 300 301 298 300 300 301 302 304 304 305 305 306 306 306 305 303 303 303 301 301 299 300 297 296 298 302 305 308 308 309 310 310 309 310 308 307 305 304 304 303 302 301 300 299 298 298 298 296 296
285 283 285 279 272 269 274 266 274 271 268 278 277 277 278 278 282 283 283 285 285 282 285 286 284 286 290 289 287 287 288 288 289 289 288 288 289 290 292 293 293 293 295 294 294 294 295 297 299 301 300 298 300 300 302 303 303 303 304 304 304 304 303 303 303 303 301 302 301 299 297 298 297 297 301 304 307 308 308 309 309 309 309 307 306 305 304 304 303 302 301 299 299 298 297 297 296
283 286 279 275 271 267 266 260 262 266 273 276 278 278 277 278 281 286 289 292 289 284 284 285 285 286 290 288 288 287 287 287 288 288 288 289 287 288 289 289 291 292 294 293 293 294 295 296 297 300 301 298 298 299 300 301 301 302 302 303 303 302 302 302 302 303 302 301 301 301 300 300 299 300 300 301 304 305 306 308 308 309 309 308 307 306 305 304 303 302 301 299 298 298 298 297 296
285 282 284 281 271 268 266 265 272 272 271 275 275 274 272 276 284 285 286 288 286 285 284 283 283 285 286 285 285 285 287 289 288 289 291 291 289 288 289 289 289 290 292 292 292 294 294 296 297 298 298 297 297 299 299 300 301 300 300 301 301 300 302 301 302 301 301 300 299 299 299 299 300 299 300 300 299 300 302 303 305 307 307 308 307 306 305 304 303 302 301 300 299 299 298 297 296
282 280 282 279 278 274 270 265 266 265 269 270 274 275 276 280 282 285 285 284 285 285 284 283 284 283 282 283 285 286 287 288 288 289 291 291 290 289 288 289 289 290 291 291 292 293 294 295 295 296 298 297 296 297 298 299 300 299 299 299 300 300 299 299 298 298 299 299 299 299 299 299 299 299 298 297 298 299 300 301 301 303 304 306 306 306 305 303 303 302 301 300 299 299 298 297 296
284 283 278 280 279 279 271 268 270 270 268 272 268 277 280 280 283 288 285 284 287 285 283 283 284 283 282 285 286 285 286 286 288 289 291 293 291 289 288 289 289 289 290 292 293 294 295 295 295 295 295 295 295 296 298 297 298 297 298 298 298 298 298 299 300 299 299 298 298 298 298 298 298 297 298 297 298 298 299 300 301 302 304 305 306 306 305 304 303 301 300 299 299 299 298 297 296
284 279 281 282 281 280 277 272 264 262 268 271 271 275 277 276 279 281 279 283 286 284 285 283 284 283 285 287 286 285 285 286 287 288 289 290 290 291 291 290 290 291 291 292 293 293 295 296 296 296 295 296 296 296 296 296 297 297 297 297 298 299 299 299 299 299 298 297 297 297 296 296 297 298 298 298 297 298 298 298 301 303 304 305 305 306 305 303 303 302 301 300 300 299 298 297 297
283 281 283 284 278 276 275 271 269 266 265 267 270 272 272 276 279 279 282 283 283 283 284 283 287 286 287 286 285 285 284 285 287 287 288 289 290 291 292 291 291 290 291 290 292 293 293 294 294 296 297 297 297 296 294 295 295 297 297 297 298 298 298 299 298 298 297 297 297 297 297 298 296 296 296 296 296 296 296 297 300 301 302 303 304 305 304 303 302 301 301 301 300 299 298 296 296
285 285 283 284 279 275 273 276 270 273 268 263 267 265 276 277 278 279 285 279 279 281 282 283 284 284 286 285 286 286 286 286 286 286 287 288 289 290 291 292 292 291 291 291 291 291 293 294 294 294 294 293 293 294 294 295 295 295 295 295 295 297 297 297 297 297 297 297 298 297 297 295 297 296 296 296 295 295 296 296 298 300 300 301 302 303 303 302 302 301 300 299 299 298 297 296 295
282 282 281 285 280 282 279 277 274 274 264 262 264 269 272 276 279 281 285 284 282 282 286 285 285 284 284 284 286 287 286 286 286 287 287 288 289 289 290 289 290 289 290 289 291 291 293 292 293 294 295 295 294 294 293 295 293 294 294 295 295 295 295 295 295 296 297 297 297 296 297 297 293 294 294 294 294 295 296 296 297 298 299 300 300 301 300 300 300 300 299 298 297 296 296 295 295
287 286 283 285 280 277 275 276 276 266 271 268 261 273 274 278 281 285 284 284 283 283 284 285 285 284 285 287 287 287 287 288 287 287 287 288 288 289 291 290 289 290 292 290 290 290 290 292 294 293 293 295 294 294 294 294 292 293 294 295 294 293 294 294 294 295 295 296 295 295 294 292 294 294 294 295 295 294 294 295 296 297 298 299 300 301 299 299 299 297 297 298 297 296 295 295 295
Wind_Speed
5 5 2 0 4 2 2 7 2 3 3 0 0 0 2 0 1 1 0 1 2 1 1 2 4 6 3 4 8 4 1 9 7 7 4 1 2 4 3 4 7 7 7 4 3 3 4 7 10 11 12 12 11 11 11 12 12 13 13 13 12 12 12 13 13 13 14 14 14 14 14 15 17 18 19 18 16 15 15 17 17 18 17 17 17 17 19 20 21 20 19 20 19 19 19 19 19
2 2 1 1 1 1 0 1 4 3 6 2 3 1 1 1 1 4 6 4 2 1 2 5 5 7 8 7 6 4 1 2 6 0 2 2 4 4 2 6 9 10 6 4 3 3 3 5 9 11 12 12 11 11 12 12 12 13 13 13 13 12 13 13 13 13 13 14 14 14 14 15 17 18 19 18 16 15 15 17 17 17 18 17 18 18 18 19 19 19 18 20 20 19 19 19 18
2 4 1 4 3 5 2 4 1 1 4 2 4 5 1 2 4 3 5 4 2 4 4 4 3 3 2 2 1 1 4 1 3 4 2 3 10 5 4 5 7 8 7 4 4 3 3 4 9 11 12 12 12 11 12 12 12 12 12 13 13 12 12 12 13 13 13 13 13 14 15 14 16 18 18 17 15 14 15 16 17 16 16 16 17 16 17 17 18 18 18 18 19 18 18 18 18
1 4 2 3 1 4 1 4 4 7 3 6 1 3 3 5 4 5 3 3 5 2 0 0 2 1 1 0 0 1 1 0 3 3 5 8 2 7 6 8 7 7 5 4 4 3 3 4 8 10 11 12 12 11 12 12 12 12 12 12 12 12 12 12 12 12 14 15 14 12 12 15 17 17 18 17 15 13 16 16 15 16 16 16 16 15 15 16 17 18 18 18 18 18 18 19 19
1 2 2 2 4 2 3 1 3 3 3 5 4 3 3 4 5 4 2 2 3 1 0 2 3 1 0 3 1 1 2 1 1 4 1 2 1 8 8 8 8 7 6 5 4 3 3 6 7 9 11 12 11 11 11 12 12 12 12 11 11 11 11 11 11 12 12 13 14 13 12 12 15 18 18 16 14 13 15 16 16 17 15 16 15 15 14 16 18 18 17 17 19 18 19 19 19
3 2 4 1 1 2 5 1 1 2 6 6 1 3 4 6 7 6 3 1 2 2 3 1 2 4 1 1 2 0 1 2 2 2 3 4 7 9 10 8 8 7 6 5 4 3 3 6 7 8 11 11 11 10 11 11 11 12 11 11 11 11 11 11 11 11 13 12 14 14 14 15 16 18 17 16 14 13 14 16 16 15 15 15 14 14 17 17 18 19 17 17 17 18 18 18 18
2 4 5 4 3 3 3 2 3 4 2 4 1 2 6 4 4 5 2 1 0 1 1 1 1 4 4 1 1 1 2 2 0 1 4 4 9 10 9 8 9 8 6 5 4 3 3 7 8 9 9 10 11 10 10 10 10 11 11 11 11 11 11 11 11 11 12 11 14 14 14 15 16 17 16 16 14 13 13 15 16 15 14 13 13 14 14 16 17 17 17 17 17 18 17 18 18
1 1 1 2 0 3 2 1 2 4 0 4 0 1 4 6 4 4 5 2 2 2 1 1 1 3 0 2 2 1 3 1 3 3 4 8 9 9 9 10 9 9 7 5 4 3 5 6 8 8 9 10 10 10 10 10 10 10 10 10 10 10 10 10 11 10 11 11 13 13 14 16 15 16 16 16 13 12 13 13 15 15 13 13 13 14 14 15 16 16 17 17 16 17 17 18 18
4 6 0 4 2 3 2 1 1 2 5 1 4 5 1 4 4 5 4 1 0 0 2 2 0 1 2 1 1 2 4 4 1 3 8 8 10 11 8 9 10 8 6 5 4 4 3 4 7 8 9 10 10 10 10 10 9 10 10 10 10 10 10 10 10 10 10 12 12 12 12 14 14 15 15 15 14 12 12 13 14 14 14 13 13 13 14 15 15 15 16 17 17 17 16 17 18
2 1 1 2 3 0 2 1 1 2 1 1 2 1 5 3 3 1 4 1 1 3 0 0 1 2 1 1 1 1 1 5 1 4 8 8 9 9 8 8 8 10 8 6 5 5 3 5 7 8 8 9 10 10 10 10 9 9 10 10 10 10 10 10 9 10 10 11 11 12 12 12 13 14 14 14 14 13 12 12 14 14 13 13 13 13 13 14 14 15 16 16 17 17 17 16 17
1 5 2 3 4 1 2 1 3 3 1 3 2 3 2 3 4 1 0 1 0 2 1 3 2 2 2 1 2 3 4 2 3 6 7 9 8 8 8 7 8 9 9 7 7 5 4 3 7 7 7 8 9 9 10 8 10 9 9 9 10 10 10 10 10 10 9 10 10 9 11 12 11 12 13 13 14 12 11 13 13 14 14 13 12 13 13 13 15 16 16 16 16 16 16 16 16
1 1 2 3 1 4 3 2 1 4 5 2 1 0 2 5 1 2 1 5 1 0 2 5 1 6 2 1 1 1 5 1 3 4 6 7 7 6 7 6 7 6 7 8 6 5 4 4 4 7 7 8 8 8 9 9 9 8 9 9 10 11 11 10 10 10 10 9 10 10 10 10 11 11 12 12 11 11 11 12 13 13 13 13 13 13 14 15 16 16 16 16 16 16 16 16 16
3 1 6 4 0 1 0 1 0 2 3 2 3 0 3 5 4 5 3 2 1 4 2 5 4 2 1 2 3 4 1 4 3 4 6 7 6 6 5 7 7 7 7 7 8 8 5 4 4 4 5 8 7 9 9 8 8 8 8 9 9 9 10 10 10 10 9 9 9 9 9 9 9 10 11 11 10 10 11 10 14 14 14 13 13 14 14 15 15 16 16 16 16 16 16 16 17
4 6 5 1 1 2 3 1 1 2 2 2 2 0 3 3 3 5 6 4 2 4 1 1 4 4 1 2 2 2 4 3 3 4 4 5 5 6 7 6 7 6 7 8 8 7 5 5 5 4 5 4 4 7 8 8 8 8 7 7 8 8 9 9 8 8 8 8 9 9 9 9 9 9 10 10 10 9 7 7 13 15 14 13 13 14 15 15 16 16 16 16 16 16 17 17 18
2 2 6 5 1 1 2 3 5 4 4 2 2 6 2 3 2 4 6 6 5 2 0 0 3 3 4 6 4 7 6 5 5 4 5 5 5 6 6 6 6 6 6 7 7 7 6 5 5 5 5 4 4 4 4 6 9 8 8 7 7 8 8 8 8 7 8 9 10 10 10 9 9 9 9 10 10 9 6 7 10 13 13 13 13 14 15 16 16 16 16 17 17 17 17 17 16
5 6 3 2 1 3 2 2 1 4 4 4 1 3 5 0 1 5 4 1 1 1 0 2 1 1 1 4 1 3 5 6 4 5 6 6 5 5 5 5 4 6 6 6 7 6 5 6 5 5 5 5 4 4 4 4 7 8 8 7 8 8 8 8 8 8 9 10 11 11 10 8 8 7 10 8 10 10 8 6 8 12 13 13 13 15 15 16 16 15 16 17 17 17 17 16 15
2 4 2 3 1 2 2 3 6 3 4 3 1 4 6 2 0 1 0 1 5 1 1 0 2 0 3 2 2 3 5 6 5 7 7 6 6 5 5 5 5 5 4 6 6 6 6 6 6 5 5 5 5 5 4 4 6 8 6 8 8 8 9 9 9 10 9 9 9 10 10 7 5 5 6 5 8 7 9 8 8 10 14 12 12 14 15 15 15 15 15 16 16 16 15 15 13
2 2 5 1 1 3 6 7 9 2 4 4 4 6 6 2 1 1 0 4 2 1 1 2 1 2 1 3 3 3 5 10 8 11 9 7 7 7 7 6 7 8 6 6 6 6 6 6 6 6 5 6 5 5 4 4 5 6 4 4 4 6 7 8 7 5 6 5 7 6 5 5 5 4 5 5 5 6 7 9 9 10 13 11 10 13 14 14 15 15 15 16 15 14 12 8 8
4 2 3 5 5 5 7 5 6 3 3 5 3 3 5 6 7 2 2 1 1 1 1 1 2 2 2 3 1 8 9 9 9 10 11 12 10 10 8 7 8 7 8 6 6 7 6 6 6 7 6 5 6 5 5 4 5 5 5 4 4 5 6 5 5 5 4 5 4 4 4 4 5 5 5 5 5 8 8 10 10 11 12 11 10 13 14 15 15 15 15 14 14 12 8 6 6
1 4 2 3 7 2 4 4 6 2 2 6 5 3 1 1 3 1 2 2 1 5 4 1 2 5 1 2 5 8 8 9 9 10 11 11 10 10 9 9 9 8 8 8 7 6 6 6 7 7 7 6 6 5 5 5 5 5 5 4 4 4 4 4 4 4 4 4 5 5 4 4 4 5 7 9 7 6 8 11 12 13 12 10 11 9 12 13 15 15 14 12 8 5 6 6 6
1 2 3 3 3 2 2 5 3 4 2 4 4 1 1 1 2 2 3 4 3 6 6 9 9 9 6 4 7 7 10 10 8 8 9 10 10 9 10 11 11 9 7 5 6 7 7 7 6 7 7 6 7 6 6 5 5 4 5 5 4 4 4 4 4 4 4 4 4 5 5 4 4 4 5 5 5 5 5 5 6 5 5 5 6 6 6 6 6 6 6 7 6 6 6 5 5
3 0 1 1 1 1 0 2 2 2 3 7 3 7 5 1 1 3 8 7 7 9 9 9 7 7 12 11 10 7 10 12 11 10 11 12 13 11 8 7 5 5 6 7 8 7 8 7 6 6 6 6 7 7 7 6 6 5 5 6 5 4 4 4 4 4 4 4 4 5 5 5 5 4 4 6 5 5 5 5 5 6 5 4 4 6 5 5 5 6 6 6 5 5 6 5 5
2 1 0 2 1 1 1 2 1 5 4 6 6 4 3 4 1 1 5 10 4 5 1 4 5 4 4 6 12 10 11 12 12 14 13 12 12 11 11 9 9 9 7 8 7 6 6 7 7 6 7 6 7 7 6 5 5 5 5 6 7 5 4 4 4 4 4 5 5 5 7 5 5 4 4 5 6 5 5 5 5 5 5 5 3 6 5 4 5 5 6 6 5 6 6 5 5
3 2 0 0 2 0 1 1 1 1 8 6 3 2 2 3 4 1 4 7 3 1 2 2 4 8 8 11 12 16 17 15 17 16 15 17 16 16 11 10 7 4 5 7 8 7 7 9 8 8 7 7 6 6 7 7 5 6 5 6 7 6 6 5 5 5 5 5 5 5 5 6 6 5 4 4 5 5 5 4 4 5 5 5 3 5 6 5 5 5 6 5 6 5 6 5 5
2 1 1 0 1 1 2 1 3 2 1 0 4 5 1 3 1 1 6 10 6 1 1 3 6 7 7 8 12 10 10 10 10 9 5 5 4 4 4 5 5 6 8 7 7 9 9 8 9 10 8 8 6 6 7 8 7 5 6 6 7 7 6 6 5 5 5 4 4 5 5 6 5 5 5 5 4 5 5 5 5 5 5 5 4 4 5 6 5 5 5 6 5 6 5 5 5
1 1 3 1 1 2 3 2 4 3 2 2 5 0 2 2 2 3 9 6 1 2 4 5 5 7 9 11 12 12 12 14 11 9 13 6 3 6 8 8 7 9 11 9 7 7 7 9 10 11 10 8 8 6 6 7 8 7 6 6 6 7 7 6 6 6 5 5 5 4 4 5 6 7 6 5 6 5 5 5 5 5 5 5 4 5 4 5 6 5 5 5 6 5 6 4 5
3 4 3 5 1 1 4 2 2 1 2 1 4 1 1 1 2 7 2 3 1 3 4 2 6 9 9 8 9 9 11 13 14 9 3 4 6 8 9 7 10 12 9 10 10 8 6 8 11 11 10 9 8 8 7 8 8 7 6 6 6 7 6 6 6 6 5 5 5 5 4 4 5 5 6 6 5 5 4 5 5 5 5 5 4 5 4 5 5 5 5 6 6 6 5 4 5
4 8 4 6 4 4 2 3 3 1 1 1 4 1 1 2 1 8 1 5 1 5 4 5 5 6 7 7 8 8 8 8 3 5 12 10 11 12 11 12 13 11 12 13 10 7 7 9 8 11 12 9 9 9 8 8 9 8 7 6 7 7 7 7 7 6 6 6 5 5 5 5 5 5 6 6 6 6 6 5 5 5 5 5 5 6 6 5 5 5 4 4 5 6 6 5 4
3 0 3 3 4 1 5 2 2 1 0 1 0 1 2 1 6 7 4 4 1 4 5 5 5 5 5 5 5 6 10 5 4 6 11 13 11 9 13 13 10 11 10 9 8 7 10 8 10 9 10 11 11 10 9 8 8 8 7 7 7 7 7 7 7 7 6 6 6 7 7 7 6 6 6 7 7 7 6 6 6 5 5 5 5 6 7 6 6 6 5 4 5 5 6 6 5
2 6 4 3 2 3 1 2 2 1 0 2 2 3 7 10 11 4 1 4 2 2 3 4 5 4 4 5 6 8 5 4 8 12 11 10 8 8 11 10 8 9 8 6 7 11 9 6 6 7 9 9 11 11 9 8 7 8 7 6 6 8 8 7 8 7 7 6 7 8 8 7 7 6 7 6 6 7 7 6 7 6 5 5 6 6 7 6 6 7 6 6 5 5 6 5 5
5 1 4 2 2 3 2 1 3 4 1 2 1 4 7 5 2 2 4 0 3 4 5 5 5 5 5 5 6 8 9 8 11 10 9 8 7 6 9 6 8 8 5 6 11 12 9 9 7 6 8 12 9 9 10 9 8 8 8 7 7 7 7 7 7 8 8 8 8 7 8 8 8 8 8 7 7 7 8 7 7 6 6 6 6 6 7 6 7 7 7 7 5 5 5 4 5
3 5 2 1 4 3 4 2 0 4 1 4 4 2 8 8 8 5 4 1 3 5 5 5 5 5 5 5 7 8 10 7 9 9 10 10 8 9 9 11 8 8 11 10 8 6 10 10 10 9 7 9 12 12 8 7 7 6 7 9 6 7 8 9 9 10 10 10 9 9 9 8 9 8 8 8 7 7 8 9 8 7 8 7 6 6 7 9 7 7 6 8 9 5 6 5 4
4 2 1 3 1 3 3 0 1 3 1 3 2 5 4 4 2 2 4 1 1 5 6 5 5 6 6 6 7 6 8 8 8 11 12 11 10 10 10 10 10 11 9 8 10 8 9 11 11 12 12 12 10 10 11 8 6 6 4 6 10 7 5 5 4 3 6 8 8 9 11 11 11 9 7 8 9 8 6 5 7 9 7 7 7 7 7 7 9 8 7 6 8 8 7 7 5
3 3 2 2 4 2 2 3 1 2 1 4 2 2 6 4 6 4 4 2 2 1 5 6 5 5 6 5 6 7 8 9 11 12 14 12 12 12 12 11 10 9 9 10 10 11 12 10 11 12 12 12 10 9 10 9 8 8 7 6 6 8 9 9 9 7 7 6 6 7 9 9 8 11 12 11 9 10 10 8 7 7 8 8 6 5 4 3 5 8 9 6 7 10 7 8 7
5 1 1 0 0 2 2 2 1 1 1 3 1 3 10 12 9 8 4 1 2 6 6 6 6 6 6 5 6 8 8 10 15 11 8 8 10 10 10 10 9 9 9 10 9 9 8 8 9 10 11 11 11 9 8 7 6 5 6 6 6 9 7 4 6 10 10 10 11 11 11 11 12 12 11 9 7 6 6 7 8 11 8 7 8 8 7 5 5 6 9 7 3 2 9 8 7
9 10 7 4 6 4 2 4 2 1 1 3 3 6 6 9 10 11 2 2 1 6 4 6 8 7 7 7 7 7 9 12 13 6 5 5 7 8 9 8 7 7 7 7 9 8 9 8 8 8 10 10 8 7 6 6 5 7 7 4 5 6 6 5 4 6 6 8 9 11 11 11 11 11 11 11 11 9 7 6 7 8 9 9 9 9 8 9 10 10 9 11 9 5 3 8 8
5 4 4 3 4 1 2 1 1 0 1 3 4 5 5 11 12 11 11 1 4 6 8 8 8 8 8 8 9 10 9 15 1 3 5 6 7 6 6 6 7 7 7 8 9 10 11 12 10 13 11 9 9 9 8 9 9 7 6 9 10 6 5 6 5 4 5 5 5 7 8 8 9 11 10 10 11 12 12 10 9 8 8 9 10 11 11 10 5 4 7 8 12 9 4 5 7
6 6 6 2 1 2 0 1 2 2 2 2 1 3 9 12 11 12 9 4 9 9 9 9 10 9 8 8 10 10 12 4 5 6 6 5 5 5 4 5 5 7 10 10 13 14 13 11 11 11 7 9 10 11 10 10 10 10 10 9 8 7 6 7 8 6 6 6 6 6 7 8 8 8 9 8 6 7 8 8 10 12 10 9 8 6 9 9 10 8 7 8 6 11 8 9 10
3 6 4 3 3 2 2 0 2 3 1 4 1 4 10 11 11 11 8 11 7 6 7 6 6 9 8 8 9 10 7 10 5 7 5 5 5 5 5 6 7 11 9 11 12 8 8 9 11 9 9 10 10 10 9 10 8 7 8 6 8 5 3 5 5 4 5 5 7 7 5 6 7 8 10 9 9 8 7 7 8 8 10 9 7 8 9 9 10 12 12 11 9 3 3 7 11
6 5 4 6 2 3 2 2 1 4 2 1 1 5 11 8 7 11 13 6 6 6 6 9 7 11 13 10 6 6 8 9 10 6 8 6 5 5 5 7 10 8 7 6 8 11 9 9 10 10 10 10 9 10 10 7 5 3 1 2 3 4 5 3 4 3 4 4 6 4 4 4 8 10 9 10 11 12 12 12 11 10 11 10 10 10 10 11 11 10 9 8 11 10 7 10 11
1 3 3 4 2 2 2 2 0 0 1 2 2 4 9 4 6 7 3 3 3 5 5 7 10 9 7 7 8 7 12 10 11 10 8 7 6 8 8 7 4 6 8 8 9 10 9 12 12 10 9 9 7 7 7 5 6 4 4 4 4 4 3 2 4 5 5 5 4 5 6 6 4 3 7 12 11 10 11 11 11 11 11 11 10 10 10 12 13 13 14 12 14 14 11 8 10
0 4 5 4 5 6 0 1 2 4 2 5 3 3 4 4 6 9 9 8 6 3 5 9 7 5 4 6 10 7 8 8 11 13 10 6 7 6 5 5 5 6 8 9 6 7 6 5 5 6 5 6 7 7 8 8 8 9 7 7 6 4 6 5 8 10 8 7 9 5 4 5 6 7 5 3 6 7 12 14 15 14 14 14 13 12 12 11 12 12 13 13 13 11 13 12 11
4 3 3 3 7 7 6 4 3 1 1 2 2 2 6 6 4 4 4 7 11 9 5 10 7 5 5 7 7 7 7 9 7 9 9 7 6 5 6 6 7 7 7 3 4 5 5 5 6 7 7 6 6 7 8 8 7 7 10 11 11 11 11 8 4 4 6 7 4 6 7 6 7 7 7 6 5 7 8 7 5 7 10 13 13 13 14 15 14 14 13 13 12 10 9 11 13
4 1 5 7 9 8 5 6 2 1 1 2 4 3 1 8 8 6 5 6 9 9 10 9 5 6 5 5 6 7 8 7 7 7 6 6 7 5 6 4 5 7 4 4 5 5 7 6 5 6 5 5 5 6 8 8 9 8 8 8 8 9 9 8 7 6 4 4 6 7 6 5 5 5 6 6 6 5 6 10 12 10 6 6 9 13 15 15 13 11 13 14 11 10 12 13 14
1 1 4 5 7 5 6 6 5 1 1 5 3 1 0 5 8 3 3 3 5 9 10 8 8 6 7 9 9 7 7 7 6 7 7 6 6 6 5 4 4 4 4 4 4 4 3 4 4 5 5 5 5 7 8 7 7 9 9 8 8 7 5 4 3 3 5 4 5 4 5 5 5 5 5 5 5 4 5 7 9 11 11 12 8 8 9 10 14 14 13 12 13 12 12 12 10
1 6 7 8 7 7 5 4 4 1 1 5 3 1 3 9 6 5 3 1 8 10 8 7 5 5 9 9 9 8 6 5 5 8 7 7 7 7 4 3 2 3 2 2 2 4 4 5 5 6 5 5 6 6 7 7 7 7 8 8 9 8 5 3 3 4 4 3 5 4 4 4 5 5 5 5 5 5 6 6 7 10 11 10 10 12 11 11 11 12 14 14 13 13 10 11 12
10 4 7 7 8 5 3 7 2 3 1 5 4 4 2 5 5 5 3 5 6 2 4 3 4 7 6 5 6 7 6 5 4 4 4 6 6 6 4 4 1 0 1 2 3 4 4 5 5 6 5 5 6 7 8 9 8 8 9 8 9 9 7 6 4 4 3 3 5 5 5 6 5 6 4 5 6 5 6 6 7 7 8 9 11 12 13 12 12 13 13 14 14 14 11 12 10
4 3 4 6 4 6 5 5 5 1 5 4 1 1 0 6 6 5 8 4 4 3 3 5 5 7 9 7 6 6 5 5 6 4 4 2 2 1 1 1 0 1 2 3 3 4 4 5 6 6 5 6 6 6 7 8 8 8 6 7 8 8 7 7 8 8 7 8 6 7 5 4 5 5 4 5 5 5 5 5 5 6 7 7 9 9 9 10 10 10 11 13 14 14 12 10 10
5 6 7 7 1 4 2 4 2 4 5 1 2 2 2 10 10 7 10 10 8 5 6 6 4 6 10 7 7 6 6 6 5 5 5 4 3 3 2 0 0 1 2 3 4 4 4 5 6 7 7 6 7 7 8 8 7 8 8 8 7 6 6 7 8 7 6 7 7 6 5 6 5 5 6 7 7 7 6 6 6 6 6 7 8 9 10 9 8 8 8 10 12 15 15 14 12
4 8 6 6 2 2 2 2 1 5 5 3 1 1 4 4 8 13 19 18 6 4 8 7 5 5 10 8 9 9 9 6 5 4 5 5 4 3 3 3 1 0 1 2 3 4 4 5 5 7 7 7 6 6 7 7 8 7 7 7 7 6 7 7 7 8 7 7 6 7 7 7 7 8 7 8 8 8 7 7 6 6 6 6 8 9 10 11 11 11 11 12 13 12 12 15 15
5 1 6 8 8 5 4 3 4 5 4 2 3 1 7 3 1 0 8 9 7 5 4 4 5 8 8 6 8 9 8 7 4 5 5 5 3 3 3 3 3 2 2 2 3 4 4 4 5 6 5 5 6 7 6 7 7 7 6 6 6 6 7 7 7 7 6 7 6 6 7 6 7 7 8 7 5 6 7 6 6 6 5 5 6 8 8 10 10 9 10 12 11 11 12 12 13
0 2 4 5 5 6 1 3 2 0 1 2 1 6 4 5 3 10 4 6 7 5 6 1 6 5 4 4 4 5 6 6 5 5 6 5 2 3 4 4 4 3 2 2 4 4 4 4 3 3 4 4 5 5 6 7 7 6 6 7 8 7 6 5 5 5 5 5 6 7 7 7 6 6 5 5 6 6 6 7 6 6 5 5 5 7 8 8 9 11 11 11 13 9 11 13 13
4 3 3 2 2 11 7 2 1 1 4 7 2 8 7 8 7 10 6 4 8 1 4 3 5 3 1 1 3 6 6 6 6 5 5 8 5 3 2 3 4 3 2 3 4 4 5 4 4 5 5 3 4 6 6 5 5 5 7 6 5 6 7 8 8 7 7 6 6 6 6 7 6 5 6 5 6 5 6 6 7 7 7 7 7 7 8 9 10 10 10 10 11 10 10 13 12
9 1 6 2 2 5 5 3 2 4 3 8 2 7 6 3 8 5 5 6 9 5 6 4 5 4 5 1 3 4 3 4 6 6 6 7 6 6 4 3 4 3 2 3 4 4 5 5 6 6 5 7 8 6 6 5 6 6 5 6 7 9 9 9 8 8 7 6 6 6 5 5 7 7 6 6 6 6 6 7 7 7 7 7 8 10 10 9 10 10 12 12 11 10 11 10 11
2 2 4 5 2 1 2 4 1 1 2 5 4 2 6 6 7 5 3 1 4 5 5 4 7 5 6 3 4 5 6 6 6 6 7 7 5 5 5 4 1 1 2 3 4 3 4 4 5 6 8 7 6 5 5 4 4 5 5 6 7 8 7 7 7 7 6 8 8 8 8 8 5 5 6 6 6 6 6 7 7 8 7 7 8 9 9 9 10 10 11 11 11 11 11 12 11
2 3 4 0 3 2 4 6 3 4 5 2 7 3 6 6 7 8 8 5 3 1 1 5 5 5 5 4 4 4 5 4 5 5 5 6 6 5 5 5 5 3 3 4 4 3 5 6 6 6 5 4 4 4 5 5 5 5 5 5 5 5 6 6 6 7 8 9 9 8 8 6 8 6 6 6 6 7 7 7 7 8 8 7 7 8 8 9 10 11 10 10 10 11 12 13 13
2 2 1 0 2 1 4 1 3 4 5 5 1 6 5 6 7 5 9 8 6 5 5 3 3 3 4 3 2 3 3 3 3 4 4 4 3 3 3 3 3 3 1 1 1 3 5 4 5 5 6 5 5 4 4 5 4 5 5 7 7 6 7 6 6 7 8 8 7 7 8 8 5 7 6 7 7 7 7 7 7 8 8 7 7 7 6 7 8 10 10 10 9 10 12 11 10
9 11 10 11 9 4 4 7 3 2 3 4 3 9 5 9 4 9 9 6 5 5 2 2 1 1 1 1 1 1 2 3 3 2 3 4 4 5 5 4 3 4 5 5 3 2 4 5 5 4 4 5 5 4 5 4 4 5 6 6 7 6 6 6 7 7 9 8 6 6 5 4 7 7 8 8 8 7 7 7 7 7 7 7 7 8 7 7 9 9 9 9 9 10 11 12 10
Wind_Direction
336 338 306 262 59 86 51 0 141 319 62 218 45 85 196 38 221 87 134 3 127 231 198 59 124 138 165 202 183 186 218 137 201 133 213 232 262 127 125 130 122 118 124 133 126 140 145 142 136 126 120 118 114 113 110 108 106 104 102 100 100 97 95 100 105 103 94 92 93 92 84 83 82 84 88 86 86 88 93 91 91 86 84 82 81 79 82 80 80 80 81 80 78 78 79 81 81
324 326 13 9 38 50 273 121 99 357 38 69 247 115 247 298 84 185 165 192 200 182 190 112 94 104 68 58 107 141 66 293 177 201 254 219 107 89 151 134 131 129 128 125 123 126 135 145 137 131 124 123 120 116 113 108 104 100 100 101 101 99 99 98 93 92 103 100 97 93 98 99 99 95 89 87 87 92 95 96 90 86 83 82 83 82 81 83 84 85 86 86 82 82 83 82 83
356 4 326 28 25 74 90 31 297 37 106 187 265 209 328 130 186 194 213 216 174 131 129 113 118 57 21 3 40 88 219 63 155 254 121 143 135 172 144 133 123 122 127 116 118 125 132 139 139 135 130 127 124 121 116 112 109 108 107 106 103 101 102 101 100 101 97 92 94 90 85 103 101 95 90 90 95 100 98 95 91 86 84 85 85 85 85 86 88 84 83 84 85 84 82 81 80
34 30 145 74 255 30 56 28 90 125 148 203 312 272 182 175 216 193 237 226 150 100 7 209 84 267 102 28 182 81 20 121 193 181 144 168 214 136 140 132 124 119 112 111 116 127 136 146 140 139 134 130 127 125 119 113 110 108 107 107 105 105 103 98 99 97 95 90 86 86 86 90 97 98 96 96 99 102 100 93 89 89 87 86 88 91 94 92 90 84 81 84 85 81 77 75 76
54 345 84 105 107 17 102 117 142 93 194 194 177 262 245 201 173 190 215 227 221 190 355 173 83 347 184 124 167 124 241 245 140 213 164 137 152 141 137 131 129 127 123 119 119 128 138 151 146 144 138 135 130 127 123 119 115 113 111 110 110 107 106 105 102 96 92 95 97 93 89 94 103 103 101 100 99 100 100 102 95 89 89 87 87 87 92 95 94 87 83 83 83 82 82 83 82
53 39 354 79 51 163 63 72 33 192 218 153 127 223 212 202 160 187 165 217 246 225 211 103 160 182 39 318 170 133 199 111 195 234 178 190 150 142 141 132 133 134 126 126 123 122 138 159 154 151 143 136 130 130 127 122 119 117 116 115 115 112 111 112 108 101 96 100 98 92 90 100 102 101 103 104 103 102 104 102 96 91 89 89 89 87 92 97 91 91 92 90 90 89 84 82 78
233 49 356 34 33 50 173 140 226 200 276 161 193 214 191 194 193 133 145 104 252 65 204 200 114 96 72 298 23 238 194 247 122 225 177 158 139 142 139 135 136 139 134 134 129 132 142 166 164 157 145 138 135 134 130 125 122 120 119 117 114 114 112 111 104 100 98 102 92 88 92 101 102 100 102 98 100 102 103 104 99 96 92 90 92 94 91 90 91 93 94 90 86 84 84 81 79
41 127 322 111 276 45 51 183 216 162 329 188 257 219 185 176 153 144 176 128 216 179 37 133 30 106 225 46 163 269 345 211 241 299 146 139 138 140 138 140 140 148 143 130 141 141 157 170 169 157 149 142 139 139 134 130 127 124 122 122 118 116 116 111 106 103 104 104 95 100 103 103 100 99 98 100 101 103 104 103 103 97 96 94 94 96 96 94 93 95 95 92 88 87 84 82 80
356 87 263 76 62 30 57 104 245 245 291 293 288 234 206 150 148 136 165 245 343 73 121 161 248 85 228 53 150 284 301 313 285 189 133 141 143 144 143 146 147 152 149 142 147 152 155 172 173 161 153 146 145 145 141 135 134 131 129 125 123 120 118 113 111 105 102 108 106 106 106 103 104 103 103 104 106 106 108 107 108 104 98 97 96 100 100 98 97 96 95 95 92 88 86 85 83
37 56 271 113 132 4 13 289 107 196 228 246 234 223 146 169 143 132 160 109 192 122 177 16 128 92 128 111 336 355 311 328 62 121 139 146 143 142 141 148 151 149 152 156 155 167 156 170 174 165 157 151 151 150 146 141 139 138 135 131 127 124 119 119 115 110 104 108 115 118 115 109 108 109 107 110 112 111 112 113 109 105 104 100 102 103 102 100 99 99 96 91 90 88 89 89 86
2 17 137 77 29 83 181 251 269 315 281 306 286 238 203 127 123 131 129 161 15 142 176 217 35 126 88 248 212 254 300 307 150 154 152 147 144 146 144 145 150 153 160 161 162 174 164 164 172 165 161 157 152 151 147 146 146 144 140 137 132 128 126 125 123 116 112 110 111 107 117 122 118 111 108 108 111 113 115 117 113 104 102 99 103 107 107 106 102 96 93 92 92 92 93 92 90
34 25 18 100 166 159 234 163 282 281 299 347 155 316 191 135 108 130 157 125 223 100 149 157 224 145 67 352 297 294 319 199 207 159 150 144 147 145 142 140 145 150 157 158 160 172 168 160 167 166 165 162 153 149 147 152 150 146 146 141 136 133 132 130 126 123 120 117 115 112 108 111 118 119 117 113 111 116 123 123 115 109 103 102 104 110 109 104 97 97 98 97 97 100 100 99 98
111 99 84 91 201 141 192 117 259 318 350 277 172 28 127 113 192 194 175 107 70 131 303 211 145 85 133 182 253 315 272 223 215 178 152 149 146 136 132 138 147 150 154 157 163 175 170 162 160 162 166 166 154 148 153 153 147 146 148 145 140 136 134 131 129 129 124 121 122 116 109 101 102 107 112 114 111 122 130 124 114 109 106 105 108 110 108 100 103 102 99 100 102 102 103 104 101
117 178 125 159 55 123 134 196 336 139 266 243 272 147 180 138 248 179 133 122 196 162 235 180 136 132 107 8 303 296 240 207 187 168 150 138 133 133 139 141 146 151 157 161 169 174 173 161 159 161 161 164 156 150 155 153 147 148 148 143 139 136 134 132 129 127 124 103 94 93 91 90 95 102 106 109 114 111 112 125 118 109 108 107 114 113 112 110 108 104 104 104 106 102 103 102 98
117 141 82 111 50 109 234 119 198 144 232 192 190 139 183 270 107 157 164 147 238 209 338 131 170 119 233 149 273 210 194 181 155 152 137 127 133 139 139 145 151 153 162 170 168 171 176 162 163 160 162 162 159 154 154 155 150 149 145 142 140 138 134 128 127 117 103 105 104 97 89 85 86 88 96 99 101 106 98 96 113 114 115 114 117 117 116 113 111 107 107 106 103 101 97 94 86
137 92 81 102 191 140 228 112 29 97 260 179 161 177 149 302 182 135 246 150 155 341 150 183 34 187 175 150 245 226 161 141 147 138 135 138 137 137 138 131 113 158 167 172 171 179 175 171 165 161 163 163 160 157 155 153 152 149 148 145 145 141 134 129 119 111 108 111 111 106 100 92 85 87 89 89 94 97 91 87 102 115 117 118 118 120 117 115 112 110 106 101 98 95 91 83 76
89 79 68 46 208 171 222 139 141 195 242 242 283 155 163 229 234 254 65 73 126 178 7 129 147 8 187 195 210 265 145 129 127 135 142 148 144 146 139 150 138 157 157 178 176 177 180 178 171 169 170 169 162 158 156 154 155 148 148 150 147 142 137 128 118 111 106 107 111 111 105 100 92 85 82 90 94 98 95 90 100 114 108 111 122 124 120 107 107 108 102 92 84 79 74 68 61
56 87 114 99 202 152 205 173 184 205 136 219 186 202 145 207 193 218 97 26 70 359 70 310 314 228 260 272 264 243 143 138 151 149 164 160 162 159 169 164 167 186 177 182 185 177 182 183 180 176 172 174 165 161 154 158 154 149 147 149 145 142 133 125 123 120 117 112 106 102 103 106 102 91 84 87 94 97 92 89 88 92 106 110 124 122 117 114 115 103 94 91 88 84 72 72 65
93 125 94 213 180 235 161 196 186 115 240 165 187 192 171 212 147 224 112 299 18 129 280 21 306 289 331 341 151 135 149 148 161 166 168 172 174 173 169 169 176 169 193 183 184 181 188 183 182 178 182 162 157 142 159 157 158 151 148 147 146 144 138 133 127 120 119 119 108 98 96 100 104 97 88 91 97 102 93 80 78 88 98 101 114 114 116 117 110 95 89 86 83 76 72 71 71
199 118 171 247 205 217 209 163 191 200 136 144 155 206 158 244 143 168 191 169 45 200 207 323 260 243 265 311 132 147 157 161 169 168 176 178 183 179 168 177 183 188 188 191 184 180 184 190 189 186 184 170 160 144 163 164 163 155 153 149 146 141 135 132 128 126 122 118 115 109 103 100 98 103 96 91 94 89 80 77 78 77 73 71 76 84 102 97 89 82 80 77 71 67 74 66 72
211 87 159 226 194 127 209 177 216 199 154 141 137 85 172 250 209 153 159 109 266 265 234 183 202 215 184 184 162 157 163 167 175 178 178 181 188 194 194 192 193 189 190 178 189 191 189 187 187 191 188 183 180 168 173 170 166 160 158 152 150 140 130 129 130 126 126 123 119 116 113 106 101 103 110 103 99 97 88 86 83 81 86 80 82 87 83 76 77 84 75 69 67 74 76 65 74
94 176 196 179 156 56 281 188 174 155 193 119 132 137 212 100 74 115 151 171 217 212 230 213 212 168 155 166 180 170 172 175 181 184 188 186 187 194 198 201 188 188 171 187 197 191 191 190 188 187 189 188 184 182 177 175 168 172 163 161 152 143 139 137 137 136 132 131 130 125 117 112 111 109 115 116 108 107 99 97 98 104 96 94 95 99 88 93 87 89 89 83 76 76 78 74 67
178 319 336 187 203 105 343 343 260 137 126 144 146 200 99 148 169 197 180 199 231 230 255 220 185 173 158 149 152 174 179 185 189 193 190 191 195 198 199 194 190 191 184 198 189 192 189 191 192 184 194 191 185 181 183 181 184 175 169 162 159 163 150 148 157 150 147 144 141 144 136 132 127 128 122 126 120 115 111 109 109 108 114 112 113 114 100 91 100 98 95 93 92 89 80 75 75
104 171 103 42 182 42 354 292 281 190 145 178 181 109 135 150 185 131 205 240 208 80 278 262 151 133 153 152 181 177 186 187 197 198 194 195 192 197 193 194 198 190 192 195 193 189 188 192 192 190 193 195 189 180 187 186 189 175 175 158 169 162 158 166 166 165 151 153 152 155 142 143 144 141 139 134 131 120 124 118 114 110 112 116 113 113 113 99 97 98 102 96 94 85 91 77 77
94 116 200 167 88 310 351 40 82 114 87 92 118 126 277 184 171 95 247 244 248 295 31 100 129 137 153 170 179 193 196 202 208 209 218 229 206 185 210 212 194 192 211 203 191 189 191 189 186 193 194 195 197 186 189 189 198 187 175 167 177 161 173 169 165 157 160 155 157 154 150 143 143 142 149 144 135 129 128 129 125 122 120 124 120 105 117 119 105 107 103 103 96 95 90 86 85
151 137 118 60 50 329 344 70 48 67 107 91 95 48 323 249 241 253 238 254 328 156 76 125 129 145 169 185 189 186 194 202 204 202 211 197 179 179 209 207 200 203 211 208 205 198 185 182 188 193 193 194 196 194 192 189 194 200 186 176 171 165 180 165 156 168 163 161 164 164 163 157 159 158 151 149 147 144 139 132 129 134 131 135 126 121 119 118 122 110 106 105 105 100 95 89 93
135 97 91 98 313 319 7 115 360 338 106 297 140 195 125 320 64 278 330 273 326 90 109 144 153 179 191 190 195 203 196 202 202 195 157 196 208 204 211 205 208 213 202 211 210 208 185 182 194 191 194 192 194 203 193 194 194 203 192 180 168 174 175 161 164 167 164 172 168 163 163 161 153 152 151 155 150 144 147 143 144 139 136 144 137 122 109 115 108 110 120 121 116 109 95 89 94
83 136 108 36 352 71 14 72 16 343 40 40 136 158 276 304 94 232 246 329 287 146 141 161 185 197 201 204 202 208 215 219 181 159 200 192 207 206 206 205 210 205 206 213 209 195 199 200 197 193 190 192 197 202 197 193 196 200 195 181 181 173 172 172 168 169 173 172 165 169 167 164 161 158 158 158 157 155 155 155 152 153 154 148 138 130 118 106 109 103 97 102 106 105 100 81 67
158 134 98 317 10 49 10 99 319 5 57 357 264 83 300 190 228 246 249 328 115 159 166 188 204 215 220 222 223 218 221 201 194 209 216 213 210 204 212 213 206 205 218 214 206 199 206 204 202 198 192 189 200 201 200 200 193 195 197 193 185 172 178 174 178 177 176 172 171 175 175 173 172 169 171 170 163 163 158 157 162 167 157 147 138 132 121 117 111 108 95 98 97 96 94 85 78
111 44 120 42 17 352 325 315 338 78 248 358 343 238 260 248 243 266 283 17 57 146 222 218 228 229 236 229 225 238 240 203 211 219 221 219 216 210 219 217 208 211 212 208 204 213 207 206 203 200 195 196 198 201 197 200 197 194 194 196 187 180 183 180 183 183 177 175 173 181 181 180 180 174 169 172 171 163 166 169 170 168 163 153 144 141 133 137 129 123 124 108 100 103 105 103 102
137 216 57 122 112 251 313 16 312 137 332 8 106 198 283 280 276 282 303 225 169 200 241 244 233 238 235 234 235 236 242 220 224 228 233 232 230 224 226 215 207 210 200 201 209 212 201 208 199 211 199 201 202 209 197 196 196 195 191 195 194 187 188 189 180 184 184 181 173 182 188 184 185 179 175 173 176 176 167 174 177 173 159 156 153 159 143 142 137 138 139 119 103 92 96 88 97
25 83 270 331 158 274 299 38 32 167 340 23 93 300 247 258 259 293 318 333 182 229 243 253 257 246 240 239 240 244 243 233 243 243 237 233 225 228 224 224 204 205 208 209 211 201 209 207 202 212 204 207 200 203 206 193 189 195 197 183 195 201 193 193 186 184 184 185 181 179 187 188 187 185 182 174 175 186 182 178 180 164 164 160 160 159 155 150 148 140 148 141 127 119 116 94 80
3 96 234 184 126 238 347 330 29 334 126 6 158 225 320 323 263 281 327 72 141 222 267 264 257 255 251 243 241 250 269 259 242 238 234 226 226 223 225 225 213 212 208 202 202 199 210 207 203 206 210 209 208 202 203 207 197 194 203 209 182 187 206 196 172 163 194 195 186 180 181 183 185 185 188 189 175 178 195 193 172 164 164 165 167 170 169 162 153 146 151 160 144 140 134 122 100
245 28 143 210 161 226 247 305 316 13 94 214 11 221 239 244 281 290 313 77 54 247 269 276 264 247 243 244 242 246 247 260 252 235 231 217 224 219 223 221 219 213 211 208 203 200 207 202 204 207 210 208 207 203 202 202 203 201 202 212 208 191 210 208 200 183 171 181 195 190 179 184 199 190 185 186 195 189 185 178 156 163 166 160 157 162 164 171 162 154 150 161 153 141 141 138 131
195 173 71 258 313 212 209 143 220 29 18 188 332 269 273 277 283 277 266 228 271 259 254 272 282 271 264 250 248 244 246 249 252 242 236 222 223 224 221 221 217 212 213 208 204 206 202 201 203 210 209 206 207 203 197 197 190 197 193 198 214 206 202 242 223 202 191 176 184 193 194 193 191 196 188 181 190 191 188 173 161 161 165 163 157 165 160 174 183 167 149 134 99 122 147 141 127
181 179 181 148 156 215 209 243 280 165 187 245 239 233 271 288 292 290 285 169 204 263 291 285 274 267 263 251 248 246 241 250 250 263 251 233 217 214 218 215 214 211 211 203 205 202 204 202 201 207 208 204 201 201 188 192 190 195 202 212 227 231 205 200 225 214 201 202 196 194 198 197 192 193 192 182 174 167 181 188 173 171 172 169 170 175 177 176 180 167 157 143 130 99 81 131 131
102 75 94 168 165 274 277 280 281 44 103 247 247 274 274 275 271 277 284 284 293 280 273 260 253 256 253 249 241 242 243 243 285 226 238 236 233 222 218 203 208 203 205 200 201 206 203 202 191 206 201 192 191 191 189 188 195 199 209 207 216 202 218 203 213 216 202 200 190 193 192 197 194 191 193 191 190 180 179 174 165 174 182 180 178 184 174 166 177 203 150 145 141 135 134 151 142
140 144 153 205 199 138 201 120 345 324 145 282 23 320 273 263 275 273 280 317 274 255 257 261 259 248 250 249 256 244 242 290 298 282 266 264 255 254 235 214 195 196 214 197 202 207 204 199 199 207 183 191 197 196 194 194 197 200 195 206 206 200 198 209 215 214 215 196 193 201 186 183 186 194 193 189 201 194 175 169 168 171 172 188 192 179 169 165 159 164 166 145 159 153 159 174 170
64 147 165 122 249 240 289 305 360 331 105 267 9 339 278 274 267 272 261 255 250 234 221 242 247 263 253 250 253 267 286 275 271 257 271 255 256 251 221 213 214 214 208 200 211 199 196 198 206 198 191 190 199 196 191 202 201 198 195 199 195 201 230 210 217 208 204 217 200 197 205 177 181 194 187 184 180 174 169 158 165 167 174 177 179 183 180 176 176 171 177 169 157 145 125 184 189
111 103 119 199 237 132 243 281 4 2 81 317 287 312 282 279 277 263 265 252 264 265 257 258 238 250 251 248 255 270 276 274 275 267 263 263 249 242 224 220 219 212 210 205 201 201 197 201 203 196 195 194 194 195 198 196 173 146 119 135 174 164 187 195 211 235 228 220 232 212 203 224 203 188 189 190 184 176 173 179 179 181 184 183 185 178 178 182 176 176 180 182 160 152 170 195 215
359 122 128 125 158 221 147 187 32 301 69 63 356 302 295 328 316 310 320 331 305 285 316 280 263 244 268 291 282 246 260 267 277 279 258 254 261 250 227 227 210 206 210 208 201 201 198 203 202 196 190 191 190 183 180 150 125 115 106 69 76 82 48 113 182 229 217 218 217 212 222 197 228 267 200 183 187 188 189 189 181 180 175 178 178 180 182 189 190 186 182 179 185 174 175 190 208
80 227 170 190 171 135 267 26 94 21 341 5 51 347 310 300 284 251 286 345 333 288 334 290 271 288 297 279 268 269 252 248 248 259 258 228 230 254 268 256 225 220 218 217 204 206 199 204 188 186 180 176 182 177 169 160 169 168 162 162 166 181 205 179 201 207 203 206 212 204 201 203 220 212 213 255 222 202 188 186 185 182 183 179 182 189 189 188 196 193 194 191 195 198 179 169 192
115 238 158 144 137 120 122 116 76 59 151 351 16 169 269 324 310 285 332 331 304 308 281 273 291 296 278 261 269 271 266 274 261 264 271 273 247 231 245 234 221 220 229 196 196 200 200 190 181 178 181 176 168 167 167 166 170 178 187 193 197 200 208 217 204 198 196 211 198 199 208 209 209 213 225 209 206 187 176 183 208 213 200 189 189 188 188 192 194 196 190 196 198 180 154 179 188
196 286 120 116 115 122 147 104 102 166 252 292 44 99 237 305 282 270 325 324 303 309 299 293 311 301 281 269 272 271 265 251 267 274 287 271 273 248 250 223 220 227 213 187 196 193 194 189 170 174 166 164 169 163 171 179 180 185 192 204 208 213 213 213 189 202 190 175 197 209 212 217 212 222 224 222 214 203 193 186 183 186 208 241 219 201 196 191 189 194 193 197 188 189 186 186 193
213 222 131 119 122 132 113 91 104 127 48 279 333 336 288 256 268 313 355 339 310 298 279 289 309 301 307 316 309 295 272 261 250 266 267 271 273 270 252 248 235 213 199 193 196 188 168 147 146 143 157 158 167 168 173 187 188 188 194 199 214 225 219 216 160 160 179 184 202 211 218 219 223 225 225 227 224 220 209 205 192 192 193 193 197 227 227 199 189 185 187 191 196 197 199 202 184
253 132 100 96 84 73 87 103 83 351 72 270 225 15 202 279 275 331 336 237 261 258 277 282 264 279 299 309 312 312 304 280 264 250 261 267 263 272 268 267 254 212 195 167 146 140 141 137 142 150 160 162 164 169 177 186 191 185 196 204 214 220 213 214 157 177 191 177 206 210 217 220 223 224 223 224 227 222 220 214 211 202 199 195 193 202 205 205 198 194 194 197 199 204 206 204 206
133 132 79 45 41 34 34 60 87 61 345 252 252 301 164 294 273 226 147 213 197 251 303 288 300 303 293 274 285 305 313 315 300 288 260 250 257 257 289 286 281 55 85 124 131 135 135 139 143 153 169 161 166 176 179 189 192 193 201 203 209 215 211 201 200 219 194 180 210 215 207 218 218 225 217 228 224 225 229 216 215 218 209 202 199 199 200 198 201 199 196 193 196 202 209 210 217
128 102 132 81 359 14 31 348 32 118 269 262 263 272 231 188 290 284 243 278 227 199 249 278 305 301 306 316 304 304 318 320 311 315 313 325 2 341 12 295 345 34 82 100 116 119 136 145 149 154 167 172 177 178 183 192 192 201 206 203 209 215 204 200 209 217 206 212 209 213 210 209 227 233 235 238 230 225 228 228 221 216 208 199 204 206 210 207 204 207 203 198 196 198 204 205 211
86 96 82 113 238 36 292 14 276 215 200 240 339 178 340 241 232 263 288 272 252 203 212 233 234 284 302 300 299 308 316 318 315 310 320 342 345 307 308 298 25 78 154 145 146 148 147 152 161 163 187 183 184 181 190 194 193 201 201 204 212 206 205 205 212 219 208 213 208 212 196 213 207 216 224 227 229 218 217 222 215 213 213 210 206 201 209 206 203 201 208 216 211 197 196 198 204
107 129 132 100 107 66 229 278 268 309 295 274 327 174 264 255 274 242 248 258 268 206 221 229 210 234 276 293 318 321 314 302 290 298 302 286 282 287 287 293 283 202 176 179 159 157 168 168 174 179 194 186 186 189 194 194 204 203 200 204 207 197 208 207 213 214 216 214 205 214 209 209 208 212 210 216 217 219 221 224 221 221 217 210 209 209 206 205 202 201 202 206 210 213 207 201 209
200 51 138 174 143 155 203 197 203 216 205 287 282 59 234 113 242 213 226 253 295 279 265 245 233 246 266 298 298 293 292 297 299 299 280 272 282 269 278 287 277 223 195 192 182 177 172 184 182 192 197 198 193 198 192 203 207 205 203 205 203 199 209 209 216 214 215 212 213 216 218 212 213 216 209 217 204 210 222 222 223 226 217 215 211 217 215 208 206 207 208 212 213 209 212 209 213
267 169 88 93 215 139 124 207 141 256 342 357 219 216 189 176 281 286 238 278 292 293 292 291 264 251 294 322 309 285 280 287 301 293 290 283 254 267 277 287 274 262 220 188 190 183 182 195 192 217 226 210 208 205 210 205 210 203 201 202 208 205 209 213 222 220 221 211 216 212 221 214 218 215 213 198 207 202 212 218 222 227 224 222 219 220 217 214 209 206 208 210 214 205 208 211 217
220 106 186 205 125 97 98 61 11 78 42 260 168 311 287 300 320 283 319 313 280 301 296 292 276 299 306 23 296 275 279 282 288 297 301 303 314 295 242 255 268 256 246 212 204 192 188 184 185 207 217 214 220 226 221 214 213 205 211 209 205 205 207 211 215 216 214 215 214 217 218 221 215 209 214 201 208 205 210 215 222 228 229 228 228 226 222 215 207 208 213 213 218 211 212 214 213
95 173 224 174 135 124 123 203 352 63 185 265 81 235 297 23 283 330 344 312 286 301 279 288 305 322 330 322 281 277 276 283 293 289 280 273 273 278 260 221 236 251 245 252 229 208 200 192 192 200 205 211 215 206 221 219 216 218 216 213 213 210 209 214 213 214 209 211 217 217 219 220 215 213 205 206 203 208 211 213 220 224 224 228 235 234 224 216 209 210 211 213 213 208 214 220 220
137 198 193 109 211 199 323 90 242 156 271 273 298 286 261 189 244 332 329 284 271 273 282 311 275 293 284 282 284 299 300 311 309 311 314 311 308 306 314 312 286 254 252 243 257 231 212 209 204 198 209 214 211 200 201 218 218 224 220 223 219 219 219 218 216 213 207 213 215 212 213 219 215 207 207 205 206 209 211 215 216 224 221 226 233 233 221 214 210 218 218 218 211 205 210 217 219
33 81 81 87 99 152 124 198 176 128 244 58 287 36 251 200 218 201 229 235 236 257 326 252 251 244 261 272 285 295 299 286 286 289 293 296 298 294 303 314 318 291 241 226 225 224 219 215 204 212 222 217 212 205 202 218 218 220 229 229 237 231 231 226 219 213 217 218 216 208 210 209 214 205 206 208 207 208 210 215 216 219 222 222 225 234 224 215 210 218 218 218 216 209 211 214 217
58 91 192 139 34 228 104 32 130 180 174 183 225 315 279 258 212 188 223 220 225 199 236 297 305 243 242 250 259 280 279 285 280 270 269 265 272 298 301 283 274 262 242 241 209 231 244 235 221 215 212 219 222 218 204 224 206 225 226 230 228 223 229 220 226 223 229 232 225 214 209 208 193 206 199 209 210 211 212 215 218 219 221 223 221 225 222 221 221 222 221 219 217 214 216 221 218
171 165 190 173 129 142 165 254 33 90 118 226 132 260 255 270 191 202 214 242 246 251 225 268 265 262 253 269 269 230 262 246 240 262 290 313 318 328 323 320 303 356 354 352 328 297 272 259 257 230 223 224 218 219 211 219 212 218 227 233 232 229 223 219 226 225 228 233 232 230 229 210 209 206 191 209 211 212 214 217 221 222 220 221 223 224 218 215 221 225 226 219 220 216 220 224 218